SCP
1 1 1 0 0 0 0 0 0 0 0 0 0 0 0 0 0 1 1 1 1 1 1 1 0 0 0 0 0 0 0 0 0 0 0 0 0 0 0 0 0 0 0
1 0 0 0 0 0 0 0 0 0 0 0 0 0 0 0 0 0 1 1 1 1 1 0 0 0 0 0 0 0 0 0 0 0 0 0 0 0 0 0 0 0 0
0 0 0 0 0 0 0 0 0 0 0 0 0 0 0 0 0 0 0 1 1 0 0 0 0 0 0 0 0 0 0 0 0 0 0 0 0 0 0 0 0 0 0
0 0 0 0 0 0 0 0 0 0 0 0 0 0 0 0 0 0 0 0 0 0 0 0 0 0 0 0 0 0 0 0 0 0 0 0 0 0 0 0 0 0 0
0 0 0 0 0 0 0 0 0 0 0 0 0 0 0 0 0 0 0 0 0 0 0 0 0 0 0 0 0 0 0 0 0 0 0 0 0 0 0 0 0 0 0
0 0 0 0 0 0 0 0 0 0 0 0 0 0 0 0 0 0 0 0 0 0 0 0 0 0 0 0 0 0 0 0 0 0 0 0 0 0 0 0 0 0 0
0 0 0 0 0 0 0 0 0 0 0 0 0 0 0 0 0 0 0 0 0 0 0 0 0 0 0 0 0 0 0 0 0 0 0 0 0 0 0 0 0 0 0
0 0 0 0 0 0 0 0 0 0 0 0 0 0 0 0 0 0 0 0 0 0 0 0 0 0 0 0 0 0 0 0 0 0 0 0 0 0 0 0 0 0 0
0 0 0 0 0 0 0 0 0 0 0 0 0 0 0 0 0 0 0 0 0 0 0 0 0 0 0 0 0 0 0 0 0 0 0 0 0 0 0 0 0 0 0
0 0 0 0 0 0 0 0 0 0 0 0 0 0 0 0 0 0 0 0 0 0 0 0 0 0 0 0 0 0 0 0 0 0 0 0 0 0 0 0 0 0 0
0 0 0 0 0 0 0 0 0 0 0 0 0 0 0 0 0 0 0 0 0 0 0 0 0 0 0 0 0 0 0 0 0 0 0 0 0 0 0 0 0 0 0
0 0 0 0 0 0 0 0 0 0 0 0 0 0 0 0 0 0 0 0 0 0 0 0 0 0 0 0 0 0 0 0 0 0 0 0 0 0 0 0 0 0 0
0 0 0 0 0 0 0 0 0 0 0 0 0 0 0 0 0 0 0 0 0 0 0 0 0 0 0 0 0 0 0 0 0 0 0 0 0 0 0 0 0 0 0
0 0 0 0 0 0 0 0 0 0 0 0 0 0 0 0 0 0 0 0 0 0 0 0 0 0 0 0 0 0 0 0 0 0 0 0 0 0 0 0 0 0 0
0 0 0 0 0 0 0 0 0 0 0 0 0 0 0 0 0 0 0 0 0 0 0 0 0 0 0 0 0 0 0 0 0 0 0 0 0 0 0 0 0 0 0
0 0 0 0 0 0 0 0 0 0 0 0 0 0 0 0 0 0 0 0 0 0 0 0 0 0 0 0 0 0 0 0 0 0 0 0 0 0 0 0 0 0 0
0 0 0 0 0 0 0 0 0 0 0 0 0 0 0 0 0 0 0 0 0 0 0 0 0 0 0 0 0 0 0 0 0 0 0 0 0 0 0 0 0 0 0
0 0 0 0 0 0 0 0 0 0 0 0 0 0 0 0 0 0 0 0 0 0 0 0 0 0 0 0 0 0 0 0 0 0 0 0 0 0 0 0 0 0 0
0 0 0 0 0 0 0 0 0 0 0 0 0 0 0 0 0 0 0 0 0 0 0 0 0 0 0 0 0 0 0 0 0 0 0 0 0 0 0 0 0 0 0
0 0 0 0 0 0 0 0 0 0 0 0 0 0 0 0 0 0 0 0 0 0 0 0 0 0 0 0 0 0 0 0 0 0 0 0 0 0 0 0 0 0 0
0 0 0 0 0 0 0 0 0 0 0 0 0 0 0 0 0 0 0 0 0 0 0 0 0 0 0 0 0 0 0 0 0 0 0 0 0 0 0 0 0 0 0
0 0 0 0 0 0 0 0 0 0 0 0 0 0 0 0 0 0 0 0 0 0 0 0 0 0 0 0 0 0 0 0 0 0 0 0 0 0 0 0 0 0 0
0 0 0 0 0 0 0 0 0 0 0 0 0 0 0 0 0 0 0 0 0 0 0 0 0 0 0 0 0 0 0 0 0 0 0 0 0 0 0 0 0 0 0
0 0 0 0 0 0 0 0 0 0 0 0 0 0 0 0 0 0 0 0 0 0 0 0 0 0 0 0 0 0 0 0 0 0 0 0 0 0 0 0 0 0 0
0 0 0 0 0 0 0 0 0 0 0 0 0 0 0 0 0 0 0 0 0 0 0 0 0 0 0 0 0 0 0 0 0 0 0 0 0 0 0 0 0 0 0
0 0 0 0 0 0 0 0 0 0 0 0 0 0 0 0 0 0 0 0 0 0 0 0 0 0 0 0 0 0 0 0 0 0 0 0 0 0 0 0 0 0 0
Wind_Speed
5 5 5 5 5 5 4 5 4 4 4 4 4 4 4 4 4 3 3 4 4 4 4 4 4 4 3 3 3 3 3 4 6 4 2 1 2 2 2 2 2 2 2
5 5 5 5 5 5 5 5 5 4 4 4 4 4 4 4 4 3 4 4 4 4 4 4 5 4 5 4 3 4 4 3 5 6 3 2 2 2 2 2 2 2 2
5 5 5 5 5 5 5 5 5 5 4 4 4 4 5 4 4 4 3 3 4 4 4 4 5 5 5 4 4 4 4 3 3 3 4 2 2 1 2 2 2 2 3
5 4 5 5 5 5 5 4 4 4 4 4 4 4 4 5 4 4 4 3 3 4 4 4 4 4 4 5 4 4 4 4 3 2 2 2 2 1 1 2 3 2 3
5 5 5 5 5 5 5 5 4 4 4 4 4 4 4 4 4 4 4 4 4 4 4 4 4 5 5 5 4 4 4 3 3 2 2 2 2 1 2 2 3 3 3
5 5 5 5 5 5 5 5 5 5 4 4 4 4 4 4 7 7 6 4 4 4 4 4 4 4 4 6 6 6 5 4 3 3 3 3 3 2 2 2 3 3 4
5 5 5 5 5 5 5 5 5 5 5 5 4 4 5 5 8 8 7 5 4 4 4 4 4 4 3 4 5 5 5 5 5 3 3 4 3 3 2 3 3 3 4
5 6 5 5 5 5 5 5 5 4 4 4 5 5 5 6 9 8 7 4 3 4 4 4 4 4 4 4 4 4 4 4 4 3 2 3 3 2 2 3 3 3 3
6 7 6 6 6 6 6 5 5 5 5 5 5 5 5 6 9 8 7 3 3 4 4 4 3 4 5 5 4 4 4 4 4 4 4 3 3 3 2 1 1 2 3
7 7 7 6 6 6 6 6 5 5 5 5 5 5 5 5 8 8 7 3 3 4 4 4 4 5 6 6 3 3 4 4 3 3 4 4 4 3 3 2 2 2 2
7 7 6 6 6 6 6 5 5 5 5 5 5 5 5 5 7 8 7 3 3 4 4 4 4 6 7 6 5 3 4 3 2 2 2 3 3 2 2 2 2 2 3
6 6 6 6 5 5 5 5 4 4 4 4 4 5 4 4 5 6 7 6 6 4 4 4 4 7 8 7 4 3 3 2 1 1 1 2 2 3 3 3 3 3 3
6 6 6 6 5 5 5 5 4 4 3 4 3 4 5 4 5 7 7 7 7 4 3 6 7 8 7 4 3 3 2 1 1 1 2 2 2 2 2 3 3 3 3
6 6 6 5 6 5 4 4 3 3 4 4 4 4 5 5 4 4 3 4 4 4 3 4 5 5 4 3 2 2 2 1 1 1 2 2 2 2 2 2 2 3 3
6 6 6 5 5 5 4 4 5 4 4 5 4 4 5 5 6 9 6 4 3 3 3 2 2 2 1 2 2 1 1 1 1 1 1 1 1 2 2 2 2 2 2
5 5 4 4 4 4 4 5 7 7 9 9 9 8 6 8 11 10 9 9 8 5 2 2 2 1 2 2 2 2 1 1 1 1 1 1 1 1 2 2 2 2 2
5 5 4 4 4 4 4 5 6 7 8 9 10 10 10 11 11 10 9 8 7 4 2 2 2 2 2 2 2 2 2 2 2 2 2 1 1 1 1 1 1 1 2
4 4 4 4 4 4 4 4 4 5 7 6 7 11 11 11 10 10 9 6 3 3 2 2 2 2 2 2 2 2 2 2 2 2 1 1 1 1 1 1 1 1 2
4 3 3 3 4 4 4 4 4 4 5 6 6 7 9 10 9 9 7 2 3 3 3 2 3 3 2 2 2 2 2 2 2 2 1 1 1 1 1 1 1 1 1
3 5 4 3 3 3 3 3 4 4 5 5 5 6 6 5 4 4 3 3 3 3 3 3 3 3 2 2 2 2 2 2 2 2 1 1 1 1 1 1 1 1 1
3 4 4 3 3 3 3 3 4 4 4 5 5 7 10 4 4 4 4 3 3 4 4 3 3 3 2 2 2 2 3 2 2 2 2 1 1 1 1 1 1 1 1
3 3 3 3 3 3 3 3 4 4 5 6 6 7 10 5 4 4 4 4 4 4 3 3 3 3 3 3 3 3 3 3 2 2 2 2 1 1 1 1 1 0 0
2 3 3 3 3 4 4 3 4 4 5 5 5 5 5 4 4 5 5 5 4 4 4 3 4 3 3 3 3 3 4 4 3 3 3 3 2 2 2 2 1 1 1
2 3 3 3 3 3 4 4 4 4 5 5 5 5 5 5 5 5 5 5 4 4 4 3 4 4 5 3 3 3 3 3 3 3 5 4 3 3 2 2 1 1 1
2 3 3 3 3 4 4 4 4 5 5 5 5 5 5 5 5 5 5 5 5 5 5 4 4 4 5 5 4 4 4 5 4 3 4 4 4 3 3 3 2 1 1
3 3 3 3 3 3 4 4 5 5 5 5 5 5 5 5 5 5 5 5 5 5 5 4 5 5 5 4 5 5 5 5 5 5 4 4 4 3 3 2 3 2 1
Wind_Direction
7 8 13 8 8 8 9 2 356 353 356 355 353 349 347 349 347 344 342 339 336 335 335 328 323 316 305 303 294 286 278 270 270 279 287 301 275 291 306 295 291 295 305
0 8 9 8 9 11 5 358 356 353 352 350 349 347 344 344 341 339 339 343 334 332 334 332 326 323 320 310 301 295 288 282 270 274 288 295 281 286 296 295 299 296 294
3 6 3 5 6 2 355 352 354 352 353 355 353 347 340 338 336 335 338 339 331 328 330 326 322 320 315 314 312 305 300 300 285 274 282 287 286 295 306 307 300 304 306
359 1 358 356 353 346 344 348 349 350 350 352 349 345 338 333 334 339 339 336 330 329 332 326 319 317 316 318 314 309 308 305 294 277 278 289 289 303 298 300 307 315 310
353 355 350 347 348 347 345 345 345 346 344 341 341 341 338 331 333 338 336 329 325 326 332 331 323 323 320 319 312 307 307 301 299 293 283 296 294 305 294 294 290 309 306
349 343 341 345 347 344 341 341 342 340 338 338 333 331 329 325 327 333 335 325 320 319 322 327 325 327 330 334 331 320 307 298 291 282 277 275 285 298 308 301 300 309 298
344 337 339 339 337 333 334 336 335 332 333 333 327 326 320 317 325 328 333 331 320 314 313 314 315 324 330 331 328 330 328 319 301 288 278 274 278 282 280 284 284 292 287
343 338 337 337 329 327 330 328 327 326 324 319 319 319 319 318 323 326 333 335 323 315 311 305 305 311 319 325 323 329 331 331 323 319 292 296 298 297 279 273 275 287 295
341 336 333 329 323 324 323 321 319 318 314 313 312 313 310 311 316 321 330 323 318 317 314 309 301 301 306 321 322 318 322 327 343 350 342 336 330 325 316 310 303 302 296
330 324 322 322 317 315 311 310 310 309 307 311 311 312 308 308 313 316 324 316 312 313 315 309 299 302 304 312 308 299 299 310 332 343 350 351 347 343 342 318 274 265 284
323 321 321 319 313 306 306 308 310 309 310 310 311 314 311 308 312 316 322 321 307 308 306 307 305 309 308 307 306 294 293 318 339 344 338 336 342 345 347 345 326 284 268
322 320 318 316 313 310 309 310 313 311 309 308 311 313 311 311 313 316 320 321 317 305 300 303 304 308 310 311 314 313 330 2 16 353 326 321 330 337 342 343 335 325 303
323 318 315 315 314 313 310 310 313 312 306 306 308 307 311 315 314 321 321 319 317 313 296 296 304 309 314 320 328 345 6 15 8 312 297 308 320 322 326 331 338 341 335
316 314 315 316 315 313 310 307 303 302 303 303 304 303 306 308 311 318 318 317 317 316 316 310 311 318 328 345 353 360 359 337 301 278 290 306 320 328 328 326 321 329 332
314 312 315 312 310 310 307 298 299 287 285 293 291 291 297 300 301 308 312 309 304 297 313 314 317 333 338 339 346 349 344 341 320 295 285 293 305 322 325 329 328 333 322
313 314 313 312 313 313 313 311 305 307 310 309 308 306 299 299 305 306 307 308 311 316 329 299 301 300 289 290 295 307 307 296 286 280 272 267 278 291 314 328 339 337 319
298 302 307 311 315 317 318 316 316 321 320 321 323 320 316 315 313 312 312 311 313 323 308 280 277 271 267 268 270 272 281 289 284 264 256 256 266 273 294 311 332 342 329
301 300 304 306 308 308 310 308 307 311 317 318 322 322 321 320 319 318 321 325 316 319 290 270 267 268 264 262 264 269 275 283 277 265 257 249 241 234 248 276 296 311 314
305 305 306 304 304 304 305 305 304 302 302 307 316 320 323 320 320 322 331 325 293 291 289 277 268 262 257 255 254 257 258 259 259 254 248 244 234 218 230 251 282 305 317
298 302 307 304 305 306 306 307 308 306 305 306 308 311 318 323 320 319 321 309 298 291 287 279 274 266 258 248 244 248 258 251 239 237 244 236 228 219 220 238 260 281 296
296 300 304 304 299 300 301 301 300 302 303 304 303 306 317 320 309 303 301 297 291 287 286 281 273 262 254 246 239 236 244 242 231 227 225 219 213 216 227 225 248 276 297
284 290 294 293 296 297 298 297 296 297 298 299 303 310 318 317 302 295 292 291 291 288 285 281 277 264 245 237 232 229 235 236 224 216 216 210 204 198 197 199 223 275 314
281 289 292 292 292 296 299 296 296 296 296 296 300 305 308 302 298 296 294 293 294 292 290 281 277 274 263 248 237 226 225 229 222 210 203 199 197 195 191 191 197 214 261
271 277 284 290 292 292 292 294 294 294 294 294 295 295 295 295 293 293 293 293 294 291 290 286 277 269 266 263 249 236 234 228 210 208 204 195 192 194 189 184 194 207 225
263 269 275 278 282 284 287 290 290 291 291 292 292 292 292 292 291 291 291 291 291 290 291 288 282 273 264 262 258 246 235 229 221 201 191 188 184 185 182 178 182 191 213
263 267 271 272 273 276 279 284 287 289 289 290 290 289 289 290 291 291 292 292 294 293 291 287 280 276 271 266 258 249 238 229 213 199 187 178 175 179 174 171 173 182 189